Content
SEND FEEDBACK

Daily
Averages
Monthly
Summary
United States of America

PYGA BEACH, GUAM


Home > North America > United States > Guam
Elevation: 6 meters     Latitude: 13 17N     Longitude: 144 39E

WEATHER
 
SELECT A DAY
Number of Records: 341,794;   Date Range: 1/1/95 - 7/23/14
 
SHARE

PRINT THIS DATA

[ ← Previous Day ]
WEATHER ALMANAC - 6 JULY, 2013
[ Next Day → ]
[ °F ]   °C
Weather ElementAverageHighLow
Temperature27.1 °C30 °C (11:06 am)24.9 °C (4:55 am)
Dewpoint25.4 °C27 °C (10:42 am)21.8 °C (11:55 pm)
Humidity90.8 %100 % (12:18 am)75 % (11:55 pm)
Barometer1009.5 hPa1011.2 hPa (9:55 pm)1008.8 hPa (2:29 am)
Wind Speed13.4 km/h25.9 km/h (2:29 am)
Weather ElementAverage
Visibility14.8 km
Wind DirectionE (91.9 °)

Weather ElementTotal
Precipitation4.57 mm
Cooling Degree Days9.1 (Base 18.3)
Growing Degree Days17.4 (Base 10)
Averaged from 115 records on 6 July, 2013
WEATHER CONDITIONS BREAKOUT
WIND DIRECTION BREAKOUT
WEATHER BY HOUR - 6 JULY, 2013
[ °F ]   °C
Local TimeTemperatureDewpointHumidityBarometerVisibilityWind DirectionWind SpeedGust SpeedPrecipitationEventsConditions
12:18 AM26 °C26 °C100 %1009.8 hPa16.1 kmEast (90°)13 km/hMostly Cloudy
12:38 AM26 °C25 °C94 %1009.5 hPa16.1 kmEast (80°)16.7 km/hMostly Cloudy
12:55 AM26.4 °C25.2 °C93 %1009.5 hPa16.1 kmEast (80°)18.5 km/hScattered Clouds
12:58 AM26 °C25 °C94 %1009.5 hPa16.1 kmEast (80°)18.5 km/hMostly Cloudy
1:11 AM27 °C26 °C94 %1009.5 hPa16.1 kmEast (100°)16.7 km/hScattered Clouds
1:16 AM27 °C26 °C94 %1009.5 hPa16.1 kmEast (90°)16.7 km/hMostly Cloudy
1:30 AM27 °C26 °C94 %1009.1 hPa16.1 kmEast (100°)13 km/hScattered Clouds
1:31 AM27 °C26 °C94 %1009.1 hPa16.1 kmEast (100°)13 km/hMostly Cloudy
1:32 AM27 °C26 °C94 %1009.1 hPa16.1 kmEast (100°)16.7 km/hMostly Cloudy
1:33 AM27 °C26 °C94 %1009.1 hPa16.1 kmEast (100°)16.7 km/hMostly Cloudy
1:34 AM27 °C26 °C94 %1009.1 hPa16.1 kmEast (100°)14.8 km/hMostly Cloudy
1:36 AM27 °C26 °C94 %1009.1 hPa14.5 kmEast (100°)13 km/hMostly Cloudy
1:37 AM27 °C26 °C94 %1009.1 hPa14.5 kmESE (110°)16.7 km/hRainLight Rain
1:38 AM27 °C26 °C94 %1009.1 hPa12.9 kmESE (110°)18.5 km/hRainLight Rain
1:42 AM26 °C26 °C100 %1009.1 hPa12.9 kmESE (110°)14.8 km/hLight Drizzle
1:47 AM26 °C26 °C100 %1009.1 hPa14.5 kmESE (110°)11.1 km/hMostly Cloudy
1:48 AM26 °C26 °C100 %1009.1 hPa16.1 kmESE (110°)11.1 km/hScattered Clouds
1:55 AM26.1 °C25.5 °C96 %1009.1 hPa16.1 kmEast (90°)13 km/h0 mmScattered Clouds
2:11 AM26 °C26 °C100 %1009.1 hPa16.1 kmEast (90°)18.5 km/hMostly Cloudy
2:29 AM26 °C25 °C94 %1008.8 hPa16.1 kmESE (110°)25.9 km/hMostly Cloudy
2:30 AM26 °C25 °C94 %1009.1 hPa14.5 kmESE (110°)25.9 km/hLight Drizzle
2:35 AM26 °C25 °C94 %1008.8 hPa12.9 kmESE (110°)18.5 km/hLight Drizzle
2:40 AM26 °C24 °C89 %1008.8 hPa12.9 kmESE (110°)13 km/hMostly Cloudy
2:42 AM26 °C24 °C89 %1008.8 hPa16.1 kmEast (100°)13 km/hScattered Clouds
2:55 AM25.8 °C24.8 °C94 %1008.8 hPa16.1 kmEast (100°)9.3 km/h0 mmPartly Cloudy
3:29 AM26 °C26 °C100 %1008.8 hPa16.1 kmESE (110°)13 km/hLight Drizzle
3:34 AM26 °C26 °C100 %1008.8 hPa16.1 kmESE (110°)9.3 km/hLight Drizzle
3:38 AM26 °C26 °C100 %1008.8 hPa16.1 kmEast (100°)9.3 km/hMostly Cloudy
3:47 AM26 °C26 °C100 %1008.8 hPa12.9 kmEast (90°)16.7 km/hRainLight Rain
3:48 AM26 °C26 °C100 %1008.8 hPa11.3 kmEast (100°)18.5 km/hRainLight Rain
3:50 AM26 °C25 °C94 %1008.8 hPa9.7 kmESE (120°)13 km/hRainLight Rain
3:53 AM26 °C25 °C94 %1008.8 hPa9.7 kmESE (120°)11.1 km/hRainLight Rain
3:55 AM26 °C25.4 °C96 %1009.1 hPa9.7 kmESE (110°)11.1 km/h0.25 mmRainLight Rain
3:59 AM26 °C26 °C100 %1009.1 hPa16.1 kmESE (110°)9.3 km/hOvercast
4:17 AM26 °C26 °C100 %1008.8 hPa16.1 kmESE (110°)11.1 km/hMostly Cloudy
4:28 AM26 °C26 °C100 %1008.8 hPa16.1 kmESE (120°)9.3 km/hScattered Clouds
4:31 AM26 °C26 °C100 %1008.8 hPa16.1 kmSE (130°)11.1 km/hMostly Cloudy
4:32 AM26 °C26 °C100 %1008.8 hPa16.1 kmESE (120°)11.1 km/hRainLight Rain
4:36 AM26 °C26 °C100 %1009.1 hPa12.9 kmEast (90°)18.5 km/hRainLight Rain
4:40 AM26 °C25 °C94 %1009.1 hPa6.4 kmENE (60°)20.4 km/hRainRain
4:43 AM26 °C25 °C94 %1009.1 hPa6.4 kmEast (80°)20.4 km/hRainLight Rain
4:44 AM26 °C25 °C94 %1009.1 hPa6.4 kmEast (90°)20.4 km/hRainLight Rain
4:55 AM24.9 °C24.3 °C96 %1009.1 hPa4.8 kmENE (70°)14.8 km/h2.79 mmRainLight Rain
4:57 AM25 °C24 °C94 %1009.1 hPa4 kmENE (70°)14.8 km/hRainLight Rain
4:59 AM25 °C24 °C94 %1009.1 hPa4.8 kmEast (90°)7.4 km/hRainLight Rain
5:08 AM25 °C24 °C94 %1009.1 hPa14.5 kmEast (100°)9.3 km/hRainLight Rain
5:09 AM25 °C24 °C94 %1009.1 hPa16.1 kmEast (100°)9.3 km/hMostly Cloudy
5:41 AM25 °C24 °C94 %1009.1 hPa16.1 kmEast (100°)5.6 km/hMostly Cloudy
5:42 AM25 °C24 °C94 %1009.1 hPa16.1 kmEast (90°)7.4 km/hMostly Cloudy
5:45 AM25 °C23 °C89 %1009.5 hPa16.1 kmEast (90°)11.1 km/hMostly Cloudy
5:47 AM26 °C23 °C83 %1009.5 hPa16.1 kmEast (100°)13 km/hMostly Cloudy
5:55 AM25.8 °C23.4 °C87 %1009.5 hPa16.1 kmEast (90°)14.8 km/h0.76 mmMostly Cloudy
6:13 AM25 °C23 °C89 %1009.5 hPa16.1 kmSE (130°)13 km/hMostly Cloudy
6:15 AM25 °C23 °C89 %1009.8 hPa16.1 kmSE (130°)13 km/hMostly Cloudy
6:17 AM25 °C23 °C89 %1009.8 hPa16.1 kmSE (130°)13 km/hScattered Clouds
6:28 AM26 °C24 °C89 %1009.8 hPa14.5 kmEast (90°)16.7 km/hRainLight Rain
6:51 AM26 °C24 °C89 %1010.2 hPa16.1 kmESE (110°)9.3 km/hScattered Clouds
6:55 AM26 °C24.4 °C91 %1010.2 hPa16.1 kmESE (110°)11.1 km/h0 mmScattered Clouds
7:55 AM27.3 °C25.3 °C89 %1010.5 hPa16.1 kmESE (110°)13 km/hPartly Cloudy
8:55 AM28.4 °C25.8 °C86 %1010.8 hPa16.1 kmEast (100°)14.8 km/hPartly Cloudy
9:39 AM29 °C26 °C84 %1010.8 hPa16.1 kmEast (90°)11.1 km/hLight Drizzle
9:51 AM29 °C26 °C84 %1010.8 hPa16.1 kmEast (80°)13 km/hPartly Cloudy
9:55 AM29 °C26.5 °C86 %1010.8 hPa16.1 kmESE (110°)13 km/h0 mmPartly Cloudy
10:42 AM29 °C27 °C89 %1010.2 hPa16.1 kmESE (110°)14.8 km/hMostly Cloudy
10:49 AM29 °C27 °C89 %1010.2 hPa16.1 kmEast (100°)13 km/hMostly Cloudy
10:53 AM29 °C26 °C84 %1010.2 hPa16.1 kmESE (110°)14.8 km/hMostly Cloudy
10:55 AM29.4 °C26.3 °C83 %1010.2 hPa16.1 kmSE (130°)16.7 km/hMostly Cloudy
11:06 AM30 °C26 °C79 %1010.2 hPa16.1 kmESE (110°)14.8 km/hMostly Cloudy
11:11 AM30 °C26 °C79 %1010.2 hPa16.1 kmESE (120°)18.5 km/hScattered Clouds
11:55 AM29.7 °C25.9 °C80 %1010.2 hPa16.1 kmEast (100°)14.8 km/hScattered Clouds
12:02 PM29 °C26 °C84 %1009.8 hPa16.1 kmEast (80°)14.8 km/hMostly Cloudy
12:08 PM29 °C26 °C84 %1009.8 hPa11.3 kmENE (70°)14.8 km/hRainLight Rain
12:19 PM28 °C26 °C89 %1010.2 hPa16.1 kmVariable11.1 km/hMostly Cloudy
12:25 PM28 °C26 °C89 %1010.2 hPa11.3 kmEast (80°)9.3 km/hRainLight Rain
12:30 PM28 °C26 °C89 %1010.2 hPa4 kmCalmRainRain
12:35 PM27 °C26 °C94 %1009.8 hPa4.8 kmESE (110°)11.1 km/hRainLight Rain
12:41 PM28 °C26 °C89 %1009.8 hPa16.1 kmSE (130°)18.5 km/hScattered Clouds
12:53 PM28 °C26 °C89 %1010.2 hPa16.1 kmESE (110°)13 km/hMostly Cloudy
12:55 PM28.2 °C26.2 °C89 %1010.2 hPa16.1 kmEast (100°)9.3 km/h0.76 mmMostly Cloudy
12:56 PM28 °C26 °C89 %1010.2 hPa16.1 kmEast (100°)9.3 km/hMostly Cloudy
12:58 PM28 °C26 °C89 %1010.2 hPa16.1 kmVariable11.1 km/hMostly Cloudy
1:00 PM28 °C26 °C89 %1010.2 hPa16.1 kmENE (70°)16.7 km/hRainLight Rain
1:02 PM28 °C26 °C89 %1010.2 hPa16.1 kmEast (80°)16.7 km/hRainLight Rain
1:05 PM28 °C26 °C89 %1010.2 hPa16.1 kmEast (90°)11.1 km/hRainLight Rain
1:08 PM28 °C26 °C89 %1009.8 hPa16.1 kmESE (120°)14.8 km/hRainLight Rain
1:10 PM28 °C26 °C89 %1009.8 hPa16.1 kmESE (120°)14.8 km/hMostly Cloudy
1:19 PM28 °C27 °C94 %1009.8 hPa16.1 kmEast (100°)11.1 km/hMostly Cloudy
1:24 PM29 °C26 °C84 %1009.8 hPa16.1 kmEast (100°)13 km/hScattered Clouds
1:55 PM29.6 °C26.6 °C84 %1009.5 hPa16.1 kmESE (120°)14.8 km/h0 mmPartly Cloudy
2:10 PM29 °C26 °C84 %1009.5 hPa16.1 kmESE (120°)14.8 km/hMostly Cloudy
2:14 PM29 °C26 °C84 %1009.5 hPa16.1 kmESE (110°)14.8 km/hScattered Clouds
2:18 PM29 °C26 °C84 %1009.5 hPa16.1 kmEast (80°)16.7 km/hMostly Cloudy
2:29 PM29 °C26 °C84 %1009.5 hPa16.1 kmENE (70°)13 km/hScattered Clouds
2:35 PM29 °C26 °C84 %1009.5 hPa16.1 kmENE (70°)14.8 km/hMostly Cloudy
2:42 PM29 °C26 °C84 %1009.5 hPa16.1 kmESE (110°)13 km/hScattered Clouds
2:55 PM29.1 °C25.6 °C81 %1009.5 hPa16.1 kmEast (90°)14.8 km/hScattered Clouds
2:58 PM29 °C26 °C84 %1009.5 hPa16.1 kmEast (90°)11.1 km/hMostly Cloudy
3:38 PM28 °C25 °C84 %1009.1 hPa16.1 kmESE (110°)13 km/hScattered Clouds
3:39 PM28 °C25 °C84 %1009.1 hPa16.1 kmESE (110°)14.8 km/hMostly Cloudy
3:55 PM28.2 °C25.1 °C83 %1009.1 hPa16.1 kmEast (80°)13 km/hMostly Cloudy
4:33 PM28 °C25 °C84 %1008.8 hPa16.1 kmNE (40°)13 km/hMostly Cloudy
4:37 PM28 °C25 °C84 %1008.8 hPa16.1 kmNNE (30°)9.3 km/hMostly Cloudy
4:42 PM28 °C25 °C84 %1009.1 hPa16.1 kmNE (50°)11.1 km/hMostly Cloudy
4:55 PM28.2 °C24.9 °C82 %1008.8 hPa16.1 kmNE (50°)13 km/hScattered Clouds
5:55 PM27.3 °C24.7 °C86 %1009.1 hPa16.1 kmESE (120°)7.4 km/hClear
6:55 PM27.2 °C25.5 °C90 %1009.8 hPa16.1 kmNNE (30°)11.1 km/hScattered Clouds
7:08 PM27 °C26 °C94 %1009.8 hPa16.1 kmEast (80°)9.3 km/hMostly Cloudy
7:17 PM27 °C26 °C94 %1010.2 hPa16.1 kmEast (90°)9.3 km/hScattered Clouds
7:44 PM27 °C26 °C94 %1010.5 hPa16.1 kmNE (50°)14.8 km/hMostly Cloudy
7:53 PM27 °C26 °C94 %1010.5 hPa16.1 kmNE (50°)14.8 km/hMostly Cloudy
7:55 PM27.1 °C25.6 °C91 %1010.5 hPa16.1 kmNE (50°)14.8 km/hMostly Cloudy
8:55 PM26.5 °C25.3 °C93 %1010.5 hPa16.1 kmENE (60°)9.3 km/hOvercast
9:55 PM26.4 °C25.2 °C93 %1011.2 hPa16.1 kmNE (40°)7.4 km/hPartly Cloudy
10:55 PM26.5 °C25.5 °C94 %1011.2 hPa16.1 kmNE (40°)5.6 km/hClear
11:55 PM26.5 °C21.8 °C75 %1011.2 hPa16.1 kmNE (40°)5.6 km/hClear
Hourly data recorded from PGUA, located 0 kilometers away from Pyga Beach, Guam







STORIES FROM OUR PARTNERS